AO-07 1 07530U 74089B 26107.25802149 -.00000044 00000-0 12898-4 0 9991 2 07530 101.9942 119.8628 0011893 246.6618 178.1996 12.53697146352884 UO-11 1 14781U 84021B 26106.46762200 .00000816 00000-0 88984-4 0 9994 2 14781 97.8007 72.7583 0008500 37.5864 322.5946 14.90633695247934 AO-27 1 22825U 93061C 26107.16572157 .00000061 00000-0 40176-4 0 9997 2 22825 98.6916 174.5908 0007232 280.6241 79.4127 14.30925494698274 FO-29 1 24278U 96046B 26107.09188991 -.00000021 00000-0 17412-4 0 9992 2 24278 98.5316 324.3054 0348836 254.9460 101.2836 13.53271248464900 GO-32 1 25397U 98043D 26106.74199182 .00000024 00000-0 30711-4 0 9998 2 25397 99.0059 97.9572 0002085 58.5198 301.6183 14.24416052442584 ISS 1 25544U 98067A 26107.16713328 .00006923 00000-0 13461-3 0 9995 2 25544 51.6328 242.0950 0006548 316.4598 43.5873 15.48795320562296 NO-44 1 26931U 01043C 26107.25361556 .00000071 00000-0 57350-4 0 9990 2 26931 67.0520 41.8703 0006643 264.2824 95.7521 14.31931781281720 SO-50 1 27607U 02058C 26106.99134524 .00000507 00000-0 77897-4 0 9993 2 27607 64.5523 318.3047 0075543 273.6029 85.6440 14.82910904255386 CO-55 1 27844U 03031E 26106.78011330 .00000189 00000-0 10099-3 0 9990 2 27844 98.6764 116.1074 0009706 11.4859 348.6539 14.24296809182933 RS-22 1 27939U 03042A 26107.30856572 .00000545 00000-0 92384-4 0 9995 2 27939 98.3459 289.9522 0012536 100.6786 24.2421 14.73355663206581 CO-65 1 32785U 08021C 26107.24913133 .00002725 00000-0 17720-3 0 9994 2 32785 97.8247 87.4420 0007493 228.4837 131.5749 15.08867364976006 CO-66 1 32791U 08021J 26106.72514753 .00011304 00000-0 38407-3 0 9996 2 32791 97.7525 101.7944 0004320 133.9152 226.2445 15.30647529977884 RS-30 1 32953U 08025A 26107.25700994 -.00000003 00000-0 -94232-4 0 9998 2 32953 82.5073 33.3333 0020619 83.6884 276.6543 12.43177496812123 SRMSAT 1 37841U 11058D 26107.22832568 .00000365 00000-0 54200-4 0 9999 2 37841 19.9723 68.4359 0011601 252.7206 236.4311 14.11560812749193 ZACUBE-1 1 39417U 13066B 26106.47430911 .00002430 00000-0 19290-3 0 9997 2 39417 97.8130 68.4832 0044892 98.0747 262.5573 15.00673871671470 Delfi-N3xt 1 39428U 13066N 26107.19213414 .00005402 00000-0 47967-3 0 9990 2 39428 97.8355 27.5948 0077259 50.6179 310.1850 14.94277808665519 GOMX-1 1 39430U 13066Q 26107.30476546 .00000720 00000-0 11599-3 0 9993 2 39430 97.6534 311.5993 0127546 273.1940 85.4681 14.69235802660977 LO-74 1 39440U 13066AA 26107.09588621 .00001514 00000-0 14584-3 0 9997 2 39440 97.8868 55.8556 0056725 229.0379 130.5925 14.93342850667877 AO-73 1 39444U 13066AE 26106.65557582 .00005674 00000-0 36089-3 0 9999 2 39444 97.8238 76.8736 0038542 54.9890 305.4945 15.08603541670384 DTUSAT-2 1 40030U 14033W 26106.73106359 .00004897 00000-0 27209-3 0 9998 2 40030 98.0867 100.6007 0009835 86.6091 273.6264 15.14189966643380 LILACSAT-2 1 40908U 15049K 26107.28086961 .00010567 00000-0 19380-3 0 9999 2 40908 97.4738 141.8721 0008872 110.9735 249.2466 15.49435816586318 Horyu-4 1 41340U 16012D 26107.25710326 .00079190 00000-0 59578-3 0 9997 2 41340 30.9887 156.6252 0006039 159.5676 200.5221 15.71133590561169 Lapan A3 1 41603U 16040E 26107.28663086 .00002464 00000-0 80305-4 0 9996 2 41603 97.1495 105.4550 0008851 226.8512 133.1992 15.32705383545480 CAS-2T 1 41847U 16066G 26107.21855588 .00000387 00000-0 64512-4 0 9991 2 41847 98.3837 183.6408 0341332 314.7001 42.6844 14.44556585495997 TechnoSat 1 42829U 17042E 26107.27098489 .00001967 00000-0 14407-3 0 9994 2 42829 97.4206 267.2873 0016714 304.3346 55.6298 15.04577062477541 AO-91 1 43017U 17073E 26107.13043834 .00005326 00000-0 23882-3 0 9997 2 43017 97.4789 335.6219 0153587 178.7106 181.4553 15.11613984456167 S-Net D 1 43186U 18014G 26107.29041336 .00003271 00000-0 17327-3 0 9996 2 43186 97.5409 12.4754 0006979 220.2273 139.8444 15.16096813449538 S-Net B 1 43187U 18014H 26107.16867691 .00002952 00000-0 15687-3 0 9995 2 43187 97.5415 12.3390 0007746 216.0782 143.9929 15.16066822449511 S-Net A 1 43188U 18014J 26107.28958080 .00003297 00000-0 17459-3 0 9994 2 43188 97.5424 12.6565 0007606 216.4753 143.5962 15.16103637449537 S-Net C 1 43189U 18014K 26106.97420553 .00002973 00000-0 15796-3 0 9991 2 43189 97.5442 12.4086 0009151 210.8721 149.1975 15.16058130448031 Ten-Koh 1 43677U 18084G 26107.06654008 .00001865 00000-0 14467-3 0 9998 2 43677 98.0793 296.8597 0008848 327.2786 32.7889 15.02678854406984 PO-101 1 43678U 18084H 26107.27774895 .00001274 00000-0 10711-3 0 9991 2 43678 98.1046 300.9039 0013753 14.6001 345.5616 15.00152575407083 QO-100 1 43700U 18090A 26107.22990609 .00000151 00000-0 00000-0 0 9992 2 43700 0.0169 241.5046 0001089 154.4911 277.9156 1.00270299 27069 MinXSS-2 1 43758U 18099A 26107.20527037 .00018551 00000-0 42210-3 0 9998 2 43758 97.4572 181.8855 0009314 127.0908 233.1192 15.42981907404716 AO-95 1 43770U 18099N 26107.16150619 .00006336 00000-0 25362-3 0 9992 2 43770 97.4435 167.6801 0008838 192.7343 167.3673 15.25385151403916 SNUSat 2 1 43782U 18099AA 26107.09860554 .00005501 00000-0 25157-3 0 9998 2 43782 97.4120 161.4467 0011647 144.0319 216.1702 15.20885515403746 SnugLite 1 43784U 18099AC 26107.11470947 .00007296 00000-0 28786-3 0 9990 2 43784 97.3930 162.0401 0004347 130.3765 229.7854 15.25837553404005 ITASat 1 1 43786U 18099AE 26107.13916181 .00003864 00000-0 19155-3 0 9996 2 43786 97.4089 159.8869 0012408 198.2158 161.8633 15.18265453403647 EAGLET 1 1 43790U 18099AJ 26107.12945367 .00002395 00000-0 14118-3 0 9990 2 43790 97.4294 158.4178 0011036 188.5027 171.6019 15.12469325403107 ESEO 1 43792U 18099AL 26107.11063682 .00001117 00000-0 84779-4 0 9994 2 43792 97.4045 147.1025 0012334 173.9175 186.2204 15.04063032402623 JO-97 1 43803U 18099AX 26107.11627094 .00010695 00000-0 35140-3 0 9998 2 43803 97.4184 169.8157 0007419 124.4915 235.7028 15.31715256404277 Suomi 100 1 43804U 18099AY 26107.16013797 .00006573 00000-0 25012-3 0 9990 2 43804 97.4242 167.8298 0011648 132.2774 227.9455 15.27032653404103 ISAT 1 43879U 18111D 26107.23772856 .00039704 00000-0 56625-3 0 9999 2 43879 97.5912 38.2440 0007847 133.7905 226.4000 15.56167594401661 UWE-4 1 43880U 18111E 26107.23872593 .00017010 00000-0 39377-3 0 9991 2 43880 97.5864 33.0045 0008636 165.6104 194.5390 15.42494238401373 Sparrow 1 43881U 18111F 26106.76215788 .00052764 00000-0 62260-3 0 9998 2 43881 97.6131 42.5005 0005357 143.0101 217.1526 15.61174849401756 Prox-1 1 44339U 19036A 26107.31037595 .00007653 00000-0 76176-3 0 9992 2 44339 23.9942 160.4310 0006739 54.8271 305.2858 14.89148930364383 Taurus 1 1 44530U 19059C 26107.25885862 .00002912 00000-0 47887-3 0 9991 2 44530 98.6354 268.3567 0009771 140.6677 219.5240 14.71404642349681 TO-108 1 44881U 19093C 26107.32659191 -.00000300 00000-0 -27911-4 0 9998 2 44881 97.7561 181.0389 0012148 289.9932 69.9976 14.86417748342375 RS-44 1 44909U 19096E 26107.18028481 .00000005 00000-0 -17652-4 0 9990 2 44909 82.5264 20.2426 0216430 287.1575 70.5932 12.79747870294544 SALSAT 1 46495U 20068K 26107.23055943 .00004835 00000-0 17499-3 0 9994 2 46495 97.8863 106.6289 0010887 147.6902 212.5006 15.28888426306047 CSS (TIANHE-1) 1 48274U 21035A 26107.08714428 .00018048 00000-0 20046-3 0 9992 2 48274 41.4683 334.1955 0005957 223.9530 136.0836 15.62466268283616 CUTE 1 49263U 21088D 26107.24478648 .00062671 00000-0 45618-3 0 9991 2 49263 97.4207 201.7751 0003115 192.1421 167.9768 15.73141860252928 TeikyoSat 4 1 49396U 21102B 26107.06417337 .00000895 00000-0 59884-4 0 9994 2 49396 97.3733 138.9155 0013195 137.9707 222.2537 15.09287982243508 Z-Sat 1 49399U 21102E 26107.22461425 .00001808 00000-0 92386-4 0 9991 2 49399 97.3394 144.3996 0018523 99.5099 260.8229 15.17789891244192 KOSEN 1 1 49402U 21102H 26107.10913322 .00005014 00000-0 19727-3 0 9991 2 49402 97.3253 150.4712 0015416 67.6571 292.6300 15.25984707244706 HO-113 1 50466U 21131B 26107.31152402 .00000294 00000-0 10451-3 0 9992 2 50466 98.4952 200.0421 0002862 284.5574 75.5297 14.41297356226346 SNUGLITE 2 1 52899U 22065F 26106.66770595 .00000617 00000-0 12628-3 0 9994 2 52899 98.2109 251.6415 0006911 207.9485 152.1347 14.64228263201992 UmKA 1 (RS40S) 1 57172U 23091G 26107.21813137 .00003507 00000-0 16517-3 0 9997 2 57172 97.5105 166.1653 0012048 339.0047 21.0692 15.20132231154741 CubeBel-2 (EU11S) 1 57175U 23091K 26107.23198807 .00007423 00000-0 27645-3 0 9997 2 57175 97.5102 169.9577 0009026 338.0820 22.0032 15.27734446154996 RS-38S 1 57189U 23091Z 26107.19741658 .00009254 00000-0 28255-3 0 9997 2 57189 97.5133 175.5415 0005907 287.7097 72.3500 15.34120415155339 SONATE-2 1 59112U 24043Q 26107.19212755 .00024072 00000-0 36740-3 0 9997 2 59112 97.5463 254.0841 0007216 71.2195 288.9841 15.54416878118402 GRBBeta 1 60237U 24128C 26107.28373676 .00002479 00000-0 17915-3 0 9991 2 60237 61.9896 69.8626 0047893 121.7872 238.7899 15.06146162 97098 Curium One 1 60242U 24128H 26107.26228494 .00004798 00000-0 28740-3 0 9996 2 60242 61.9789 61.3945 0047504 118.1723 242.4183 15.11531586 97249 ROBUSTA-3A 1 60243U 24128J 26107.25998567 .00004563 00000-0 27985-3 0 9991 2 60243 61.9865 63.5434 0048556 115.6346 244.9777 15.10715000 97210 CatSat 1 60246U 24125J 26107.14872897 .00027794 00000-0 44839-3 0 9994 2 60246 97.2157 319.1342 0025258 51.9554 308.3974 15.52502863 97901 HYPERVIEW-1G (RS66S) 1 61772U 24199AP 26107.28562549 .00048064 00000-0 51287-3 0 9993 2 61772 97.3003 344.5117 0009341 131.0377 229.1691 15.63756280125125 AO-123 1 61781U 24199AY 26107.28705716 .00004953 00000-0 14883-3 0 9998 2 61781 97.3088 336.5185 0014656 160.7873 199.3926 15.34771638124589 JINJUSat 1B 1 63210U 25052A 26107.16141702 .00008926 00000-0 29489-3 0 9994 2 63210 97.4075 3.9037 0001879 340.7841 19.3330 15.31612437 60750 NUSHSAT 1 1 63211U 25052B 26107.22849456 .00010761 00000-0 33336-3 0 9999 2 63211 97.4054 4.3485 0001846 352.3570 7.7644 15.33624615 60798 TEVEL2-4 1 63213U 25052D 26107.17169949 .00010000 00000-0 32116-3 0 9998 2 63213 97.3972 3.5414 0002211 21.1568 338.9765 15.32490157 60767 TEVEL2-5 1 63214U 25052E 26106.66355013 .00009667 00000-0 31203-3 0 9994 2 63214 97.3977 2.9982 0002274 22.8676 337.2667 15.32337463 60687 TEVEL2-6 1 63215U 25052F 26107.19680111 .00009964 00000-0 32181-3 0 9990 2 63215 97.3973 3.5161 0002362 19.3822 340.7509 15.32308484 60766 TEVEL2-1 1 63217U 25052H 26107.14082798 .00010864 00000-0 35568-3 0 9997 2 63217 97.3943 3.1524 0002951 30.7216 329.4198 15.31846390 60740 TEVEL2-3 1 63218U 25052J 26107.13741617 .00011029 00000-0 36055-3 0 9995 2 63218 97.3957 3.1646 0002937 29.4218 330.7189 15.31889700 60749 TEVEL2-2 1 63219U 25052K 26107.14139849 .00009750 00000-0 31946-3 0 9997 2 63219 97.3952 3.1547 0002923 28.4870 331.6531 15.31849623 60744 TEVEL2-9 1 63237U 25052AD 26107.17419053 .00009109 00000-0 31571-3 0 9990 2 63237 97.4011 2.6862 0006563 18.0308 342.1164 15.30033855 60694 TEVEL2-7 1 63238U 25052AE 26106.68106053 .00008855 00000-0 30941-3 0 9996 2 63238 97.4015 2.1349 0006756 19.7114 340.4386 15.29777773 60612 TEVEL2-8 1 63239U 25052AF 26106.68860318 .00008615 00000-0 30129-3 0 9990 2 63239 97.4008 2.1209 0006807 21.0706 339.0813 15.29757438 60615 HYDRA-W 1 63490U 25052BL 26107.19904703 .00724565 22328-3 19554-2 0 9990 2 63490 97.3770 10.8225 0006471 151.4933 208.6697 15.94305497 61258 HADES-ICM (SO-125) 1 63492U 25052BN 26107.15322792 .00182275 00000-0 13735-2 0 9991 2 63492 97.3903 9.3935 0003547 91.0317 269.1353 15.71953326 61150 SPIRONE 1 66657U 25274H 26106.54597272 .00001570 00000-0 15523-3 0 9998 2 66657 97.7464 36.7384 0011140 213.3928 146.6591 14.93291934 21027 K-HERO 1 66660U 25274L 26106.70209379 .00001211 00000-0 11961-3 0 9992 2 66660 97.7471 37.0072 0012886 218.6304 141.3995 14.93729838 21053 SNUGLITE-III DURI 1 66661U 25274M 26106.55808287 .00001355 00000-0 13294-3 0 9999 2 66661 97.7468 36.8830 0013498 220.3385 139.6835 14.93795673 21039 SilverSat 1 66909U 98067XV 26106.56755711 .00764812 28915-3 12799-2 0 9998 2 66909 51.6139 227.4458 0014275 326.0751 33.9346 16.02081806 21195 SAKHACUBE-CHOLBON 1 67290U 25313AU 26107.17536658 .00005455 00000-0 22962-3 0 9998 2 67290 97.3959 183.0196 0009166 201.5946 158.4905 15.23750652 16684 RS95S (QMR-KWT-2) 1 67291U 25313AV 26107.14414082 .00008524 00000-0 34735-3 0 9993 2 67291 97.3961 183.0600 0009063 200.5606 159.5269 15.24673298 16682 Ten-Koh2 1 68261U 25241B 26105.83021768 .00004974 00000-0 22194-3 0 9991 2 68261 51.6431 256.2725 0005041 297.6495 62.3970 15.23083660 5406 JACK-002 1 68417U 26067B 26107.22712084 .00004540 00000-0 22262-3 0 9999 2 68417 97.4524 66.6275 0003871 110.9360 249.2289 15.18612909 2695 DISCO 2 1 68431U 26067R 26106.83709926 .00005636 00000-0 27914-3 0 9998 2 68431 97.4559 66.2394 0002261 153.8356 206.2993 15.18165231 2630 HADES-SA (SpinnyONE) 1 68446U 26067AG 26106.39027202 .00008752 00000-0 44603-3 0 9991 2 68446 97.4367 65.7290 0004792 300.7190 59.3571 15.16996126 2555 PARUS-6U1 1 68456U 26067AS 26107.11540531 .00003816 00000-0 19725-3 0 9991 2 68456 97.4510 66.4689 0003747 280.5204 79.5607 15.16865787 2671 SAL-E 1 68458U 26067AU 26106.85184627 .00004912 00000-0 25286-3 0 9990 2 68458 97.4435 66.1942 0004022 296.3068 63.7752 15.16867909 2638 IO-86 1 40931U 25360.30710720 .00000000 00000-0 12800-3 0 00 2 40931 6.0006 332.5373 0012733 338.8432 8.1437 14.79075515 01 LILIUM-4 1 71922C 26067AC 26089.50133053 -.00014632 00000 0 -74472-3 0 04 2 71922 97.4497 49.1617 0004341 5.9603 355.7042 15.16896692 16